RH
48 49 43 41 41 41 44 45 43 41 40 38 35 30 25 22 20 18 13 8 7 7 6 6 6 6 5 5 5 6 7 7 6 5 5 7 7 7 7 6 6 6 5 6 7 8 7 7 7 7 7 8 7 8 9 9 9 10 14 14 13 15 16 14 13 13 13 13 13 15 16 15 17 20 20 22 23 24 24 25 25 25 25 27 30 33 35 35
48 51 45 41 40 41 43 43 41 41 40 37 30 25 21 19 17 13 9 7 6 6 6 6 6 6 5 5 6 6 7 6 6 5 6 7 7 7 7 6 6 6 5 6 6 7 7 7 7 7 7 7 7 8 9 9 9 10 11 14 16 16 15 13 11 12 12 13 13 14 16 16 18 20 20 21 23 24 26 26 25 26 28 29 33 36 38 39
48 49 44 41 42 41 40 41 41 40 36 30 25 21 19 16 12 8 6 5 5 5 5 6 6 6 6 6 7 7 7 7 6 7 6 6 7 8 8 7 6 6 6 6 5 6 6 7 8 7 7 7 7 8 9 10 11 10 11 16 16 13 15 13 11 12 12 13 14 14 16 16 17 18 19 20 21 27 32 31 29 28 29 32 35 37 38 39
45 45 45 45 43 39 38 40 40 35 29 24 21 18 16 12 8 6 5 5 4 5 4 5 5 5 6 7 7 7 7 7 6 8 7 6 7 7 8 7 7 6 6 6 6 6 6 7 8 7 8 8 8 9 9 10 11 11 13 15 12 11 14 13 11 12 14 15 15 15 14 15 16 17 19 21 23 30 36 36 35 34 33 35 37 38 39 40
43 44 45 44 40 38 38 38 34 28 23 20 17 15 11 9 7 7 6 6 6 5 4 5 5 6 6 7 8 7 8 7 7 8 8 7 7 7 8 7 7 7 6 7 6 7 7 7 8 8 8 8 8 10 10 10 11 13 14 12 11 12 13 12 12 14 15 15 14 14 14 14 17 19 21 24 26 30 33 34 35 36 36 37 38 40 42 43
45 46 44 41 39 38 36 33 27 22 19 17 14 11 7 7 7 6 6 5 5 4 4 5 6 6 7 7 7 7 8 8 8 8 8 8 7 7 8 8 7 7 7 7 7 7 7 7 8 8 8 8 9 10 10 10 12 16 15 11 12 13 12 13 13 15 15 14 14 14 15 16 18 21 24 26 29 30 30 31 33 35 38 39 40 42 44 46
48 47 41 38 38 36 32 27 22 18 16 13 10 7 6 6 5 5 5 4 4 4 5 5 6 7 6 7 7 6 7 8 8 8 7 7 7 7 8 8 8 7 7 7 7 8 8 8 8 9 8 9 9 10 11 11 12 14 13 12 13 13 12 14 14 14 15 15 15 15 17 18 19 22 25 28 31 32 31 32 33 35 38 40 42 45 47 50
47 43 38 38 36 32 27 22 18 16 13 9 7 6 6 5 4 4 5 4 5 4 5 5 6 6 6 7 8 6 7 8 8 8 7 7 7 8 8 8 8 8 8 7 8 8 8 9 9 9 9 9 10 11 11 13 14 12 12 12 13 13 13 13 14 14 15 16 16 15 17 18 20 23 26 29 31 31 30 31 33 35 37 40 43 45 49 53
41 39 38 36 32 26 22 18 15 12 9 6 6 5 5 5 5 5 5 5 5 5 6 6 6 6 5 7 7 7 7 8 8 7 7 7 8 8 9 8 8 8 8 7 8 7 8 9 9 9 9 10 10 12 12 13 14 13 13 13 13 14 14 13 14 14 15 17 16 15 16 19 22 24 27 29 30 29 28 30 32 34 37 40 43 46 49 52
37 38 36 31 26 21 17 15 12 8 6 5 5 4 4 5 5 5 6 6 6 6 6 6 6 6 6 7 6 7 7 8 8 8 7 7 7 8 8 8 9 9 8 7 7 8 9 9 9 9 10 11 11 12 12 12 13 14 13 14 14 14 14 14 14 14 15 17 16 15 17 21 23 25 28 30 29 28 28 30 32 35 38 41 45 49 52 54
37 36 32 27 21 17 14 12 8 6 6 4 4 4 5 5 6 6 7 7 6 6 6 6 6 6 6 6 7 7 7 8 8 8 7 7 7 7 8 8 9 9 8 8 7 8 8 9 9 9 10 11 12 12 12 13 14 14 13 16 15 14 15 14 14 15 16 18 16 15 17 22 24 26 29 29 28 28 29 31 33 36 39 41 45 48 52 56
36 34 29 22 17 14 12 8 6 6 5 4 4 4 5 6 7 7 7 7 7 6 6 6 6 6 6 6 7 7 7 8 8 8 8 8 7 7 8 8 9 9 8 8 8 8 8 9 8 9 11 12 13 13 13 13 14 13 14 18 17 15 16 15 15 16 16 17 16 16 18 22 25 26 28 27 26 26 27 29 30 33 37 40 43 46 51 55
35 33 25 17 15 12 9 7 6 5 4 4 5 5 6 7 7 7 7 7 7 6 6 6 6 7 7 7 7 7 7 7 8 8 8 8 8 8 8 8 9 9 8 8 8 8 8 9 9 10 12 13 13 13 13 13 13 13 14 18 18 17 17 16 16 17 17 17 16 17 20 23 25 25 26 25 23 23 23 25 28 32 39 41 43 46 50 55
36 30 20 15 13 10 7 6 6 5 5 6 6 7 7 7 7 7 6 6 6 6 6 6 7 7 7 7 7 7 7 7 8 8 8 8 8 9 8 9 10 9 8 8 8 9 9 9 11 12 12 12 13 13 13 13 12 13 15 18 18 18 18 16 16 16 17 17 16 18 21 23 24 24 25 24 22 22 22 24 27 33 39 40 42 45 49 53
34 25 17 14 11 8 7 6 5 5 6 7 8 8 7 7 7 6 6 6 6 6 6 6 7 8 8 8 8 7 7 8 8 8 8 8 8 9 9 9 10 9 9 9 9 9 10 11 12 11 11 12 13 14 15 14 14 14 16 18 17 17 17 17 17 17 18 17 15 19 21 23 25 24 25 24 22 20 21 23 25 30 35 39 45 50 53 56
30 21 15 12 9 7 6 5 5 6 7 9 9 8 7 7 7 7 7 7 7 7 7 7 7 9 8 8 8 8 8 8 8 9 9 9 8 9 9 10 10 9 9 10 10 10 11 12 12 12 11 12 12 14 17 17 16 15 15 17 16 17 17 18 18 18 21 18 17 22 24 25 26 24 24 24 22 20 21 22 23 27 34 43 50 53 55 57
24 18 13 9 8 7 5 5 5 6 7 9 9 8 8 7 7 7 7 7 7 7 7 8 8 9 9 8 8 8 8 8 9 9 9 9 9 9 9 11 11 10 10 10 11 11 12 12 12 12 12 12 12 12 16 18 17 15 16 19 18 19 20 21 20 20 22 21 21 25 24 25 26 23 24 25 22 21 19 19 21 27 35 44 50 52 52 54
21 16 10 8 7 6 5 6 6 6 8 8 9 8 7 7 7 7 7 7 7 7 8 8 8 10 10 9 9 9 9 9 9 9 9 9 9 9 10 11 11 11 11 11 12 13 13 12 12 12 12 12 13 13 16 19 18 19 20 22 21 21 24 23 22 22 23 23 24 24 22 24 26 24 26 27 26 25 23 22 24 29 35 41 47 48 47 48
19 13 8 7 6 5 5 6 7 8 9 9 9 8 8 8 7 7 7 7 8 9 9 9 10 10 10 9 9 9 9 9 10 9 9 10 10 10 10 11 12 12 12 12 13 14 13 13 13 13 14 14 15 16 17 18 19 21 22 23 23 24 24 23 23 22 23 23 22 22 21 23 27 28 30 31 30 30 29 30 32 34 34 35 40 45 48 52
17 10 7 7 6 5 6 7 8 9 10 10 9 8 9 9 8 8 8 7 9 10 9 10 10 10 10 10 9 9 9 9 10 10 10 10 10 11 11 12 12 12 13 14 15 14 13 14 15 15 16 16 16 17 17 18 19 20 21 22 24 25 24 21 21 20 20 21 21 22 22 24 29 32 33 33 34 34 33 34 36 36 32 33 40 47 52 55
14 8 7 7 5 6 7 8 8 9 10 9 9 10 10 10 9 9 10 9 9 9 9 9 10 10 10 10 9 9 10 10 10 10 10 11 11 11 12 13 12 12 13 15 16 14 14 16 17 16 16 16 17 17 17 18 20 21 21 22 24 25 23 21 20 19 19 21 23 23 25 28 33 35 34 34 36 37 38 38 35 33 35 41 48 52 54 55
12 7 7 6 5 7 7 8 9 9 10 9 9 9 8 8 8 8 10 10 9 9 10 10 10 10 10 10 10 10 11 11 11 11 11 11 11 12 13 13 13 13 13 14 15 15 15 17 17 16 16 17 17 17 17 18 21 22 21 23 24 23 22 21 20 19 19 23 27 26 27 32 35 34 34 36 38 40 41 39 33 31 37 46 53 57 58 57
9 7 7 6 6 7 7 9 9 9 9 9 8 8 8 7 7 8 8 9 10 10 10 10 10 11 11 11 11 11 11 12 12 12 12 12 13 14 15 13 13 14 13 14 14 15 16 17 17 17 18 18 19 19 19 19 21 23 23 23 24 22 23 24 21 20 21 26 30 29 31 36 34 32 35 39 40 40 42 39 33 32 38 49 56 60 60 58
7 7 6 6 7 7 8 9 9 9 9 9 8 8 8 7 7 8 8 9 10 10 10 10 11 11 11 11 11 12 12 13 13 13 12 13 14 14 15 15 14 14 15 16 15 16 18 17 18 19 19 19 20 20 20 20 22 24 24 23 23 23 24 26 25 22 24 29 31 30 31 33 34 36 37 39 40 40 41 36 32 36 45 55 58 59 56 49
7 7 6 7 7 8 8 9 9 9 9 9 8 8 8 7 8 8 9 10 10 10 11 11 11 11 11 11 12 13 13 14 14 14 13 13 14 15 15 16 15 15 16 17 16 17 18 18 19 20 19 19 21 21 22 22 23 25 25 23 23 23 24 26 25 25 26 29 30 30 28 26 33 40 38 39 42 42 40 35 36 45 52 58 59 53 45 34
7 7 6 7 8 8 9 9 9 9 9 9 8 9 8 8 9 9 10 10 9 11 12 12 12 12 12 12 12 13 14 14 14 13 14 14 15 16 16 16 15 16 17 18 17 18 19 19 20 20 21 21 22 22 22 23 24 26 24 23 23 24 26 27 27 30 29 28 32 32 29 27 30 38 40 41 43 42 42 39 43 53 58 60 56 43 31 25
7 6 6 8 8 8 9 9 8 8 9 9 8 8 8 9 9 9 11 11 11 12 12 12 12 12 12 12 12 14 14 15 15 14 14 15 15 17 17 16 16 17 19 19 19 19 20 20 21 21 22 22 22 23 23 23 26 26 24 23 24 24 27 29 30 30 28 30 34 30 29 30 30 39 43 42 42 44 44 35 34 48 56 51 40 28 24 25
7 6 7 8 8 8 8 8 8 8 8 8 8 8 8 9 9 10 12 11 12 13 13 12 12 11 12 12 13 14 15 16 15 14 15 16 15 17 18 17 17 18 19 19 18 20 22 22 23 23 23 23 23 23 23 24 26 26 24 24 25 25 27 30 29 28 27 33 36 30 31 33 33 42 45 43 44 43 36 27 27 40 43 32 24 24 31 34
6 6 7 8 8 8 8 8 7 8 8 7 8 8 9 9 10 12 12 11 12 13 13 13 12 12 14 15 15 15 15 16 16 15 16 16 16 17 17 18 19 19 19 18 17 21 23 23 25 26 24 24 24 24 24 25 26 25 24 24 25 25 27 28 29 29 30 35 36 33 34 36 36 37 37 40 42 36 29 26 27 32 32 30 31 36 40 36
6 7 7 8 8 8 8 8 7 8 7 8 9 9 10 10 11 12 10 10 13 13 13 13 13 14 15 16 16 16 16 17 18 17 17 17 17 18 18 19 20 19 19 19 20 23 24 25 28 28 26 25 25 24 25 26 26 25 24 24 25 25 26 26 27 30 31 34 36 36 36 36 35 32 32 37 37 33 31 28 28 31 33 35 36 38 36 28
6 7 7 8 8 8 8 8 7 7 8 8 9 9 10 10 11 11 10 11 13 13 13 14 15 16 16 16 16 17 17 18 19 19 18 17 18 19 19 20 20 19 19 20 22 25 25 26 27 28 27 27 26 25 26 27 28 27 26 26 27 26 25 25 28 32 36 37 36 36 36 35 35 35 37 37 34 33 32 29 31 34 34 33 30 29 27 26
6 7 8 8 8 7 7 8 7 8 9 9 9 10 11 11 10 10 10 12 13 13 14 16 17 16 16 17 16 17 18 18 18 20 20 18 18 20 20 21 22 21 20 21 22 25 25 25 26 28 28 27 26 26 27 29 28 27 27 27 29 29 30 33 33 35 39 37 35 37 37 36 34 36 38 36 34 32 29 31 35 32 28 26 22 20 22 30
6 7 8 8 7 7 7 7 8 8 9 9 10 10 11 10 11 12 11 11 13 15 16 17 16 16 16 16 16 18 18 18 18 20 21 19 18 20 21 22 24 23 22 21 22 23 25 26 26 28 28 27 27 26 27 29 30 30 29 31 34 36 43 46 41 40 42 38 37 39 38 37 35 36 36 35 35 32 29 33 34 28 22 17 14 16 23 35
7 8 7 7 7 7 7 7 8 9 8 9 10 10 10 9 11 14 11 10 13 16 17 17 16 16 16 15 16 18 18 18 19 19 19 19 18 19 21 22 24 25 23 23 24 25 27 27 27 28 29 28 28 29 30 31 32 32 33 35 37 40 48 51 47 48 48 43 42 42 40 41 40 38 36 34 34 33 32 32 28 20 14 11 12 16 25 37
8 8 8 8 8 8 8 8 9 9 8 9 10 10 10 10 10 11 11 12 14 15 17 17 16 15 15 15 18 19 19 19 20 20 19 19 19 20 22 23 24 26 27 26 26 27 27 27 28 30 29 29 30 31 32 33 34 34 35 37 40 40 44 48 47 49 50 48 46 42 38 39 39 37 35 35 35 33 32 29 22 15 11 9 11 15 26 38
8 8 8 9 9 8 8 8 9 8 8 10 10 9 11 11 10 10 13 15 15 15 16 16 15 13 13 15 17 19 20 20 20 19 20 21 21 21 23 24 25 28 29 28 27 28 27 27 29 31 30 30 30 32 34 35 35 36 38 40 40 40 42 46 47 46 49 52 47 39 39 39 37 37 36 35 36 33 31 28 19 12 10 9 9 15 28 37
9 8 8 8 9 8 8 8 8 8 9 10 10 10 11 12 12 14 17 18 16 16 14 13 15 14 13 14 16 18 20 21 20 19 20 22 23 23 24 25 27 29 30 31 30 29 29 29 28 30 32 32 32 32 34 36 36 38 42 41 39 42 44 45 48 49 51 54 47 41 46 47 41 38 36 35 36 34 33 27 16 10 10 8 7 16 29 36
9 9 9 8 8 9 8 9 8 9 10 10 11 12 12 13 15 18 20 19 17 16 13 11 15 16 15 15 17 18 20 21 20 20 20 21 24 26 25 25 28 30 32 34 32 30 30 31 29 29 32 34 34 34 36 37 38 39 42 42 42 47 48 47 53 58 59 60 54 47 49 50 44 40 39 38 36 34 31 23 13 10 9 7 7 17 29 35
10 10 10 8 8 9 9 8 9 9 10 10 11 12 13 15 19 20 20 20 18 15 12 12 15 16 16 17 18 19 21 21 20 20 21 22 24 27 26 25 28 31 33 34 32 30 31 32 32 30 31 34 34 34 36 38 40 41 44 45 45 48 50 50 54 58 60 64 64 59 53 48 43 41 42 40 35 32 27 17 11 10 9 6 8 17 29 35
10 11 10 8 8 8 8 8 9 11 12 12 13 13 14 17 20 20 19 19 18 14 12 13 14 15 17 19 20 20 21 22 21 21 22 23 24 27 27 27 28 30 33 34 33 32 31 32 33 32 32 34 34 34 37 39 42 45 49 51 50 50 50 51 53 56 60 64 68 69 61 49 42 43 43 39 35 31 24 14 11 10 9 7 8 18 29 35
9 10 10 8 7 7 7 8 11 13 13 13 13 15 17 18 20 20 18 18 19 15 14 15 15 15 17 19 20 21 21 21 21 22 23 24 24 26 28 30 30 31 33 33 32 33 33 33 34 33 33 35 35 35 36 39 42 46 51 54 53 53 53 55 57 60 64 67 68 72 70 55 45 44 42 39 37 32 22 14 12 10 8 7 9 18 28 34
9 10 9 8 8 7 8 11 14 14 13 14 16 17 19 18 19 20 19 18 18 15 15 16 17 17 18 19 20 21 21 20 21 23 24 25 25 27 31 33 34 35 34 33 33 35 36 35 35 35 35 35 36 36 37 40 42 45 50 52 52 55 56 58 61 61 64 67 67 73 75 61 47 44 43 41 39 31 21 14 12 10 8 8 9 16 26 33
10 10 8 8 8 8 9 13 15 15 16 18 19 19 19 18 17 18 18 16 16 15 15 17 19 19 20 21 21 21 21 21 22 24 25 26 28 31 33 34 34 35 35 34 33 36 38 37 36 36 34 35 36 37 38 40 43 46 50 53 54 57 57 57 61 62 64 67 67 72 74 60 47 45 44 43 39 29 20 16 13 10 9 8 9 16 25 32
8 9 8 8 8 8 10 13 14 15 17 18 18 18 19 18 17 16 16 16 16 15 14 17 19 19 21 22 22 21 22 22 23 24 25 26 30 35 37 36 35 34 35 36 36 38 39 37 37 38 37 38 39 40 41 42 46 48 51 54 57 58 58 59 62 65 68 67 68 74 72 57 48 46 45 45 38 27 21 18 13 10 10 9 10 15 24 30
8 9 9 8 8 9 11 14 15 16 17 17 17 17 17 17 17 16 17 18 17 16 15 17 20 20 22 23 22 22 23 22 22 25 26 26 31 37 40 39 37 36 37 38 39 40 40 37 38 41 43 45 46 47 46 46 48 49 52 56 58 59 61 61 62 66 67 64 68 72 66 55 48 46 47 45 36 27 24 19 14 11 11 10 10 14 23 28
9 10 10 10 9 10 12 14 15 16 17 16 15 16 16 16 17 17 17 17 17 17 17 19 20 20 21 23 23 21 23 24 23 24 26 27 30 36 39 40 40 40 39 39 39 39 40 39 39 41 44 47 48 47 47 46 48 50 54 58 60 60 61 61 63 65 64 64 68 67 63 57 49 47 48 44 35 29 26 20 16 13 11 10 10 14 22 27
9 11 11 11 11 12 14 15 15 16 16 15 15 16 17 16 17 16 16 17 17 18 18 19 20 20 20 21 22 21 23 25 24 24 26 27 29 33 37 39 41 41 41 42 40 39 40 40 41 43 44 45 45 45 46 47 49 51 53 57 58 61 63 63 64 64 63 68 69 60 59 61 54 51 51 43 34 32 28 22 19 15 12 11 10 14 22 26
10 11 11 11 13 14 14 15 16 17 17 16 16 17 17 16 16 16 16 18 18 18 18 18 20 20 20 21 20 20 23 24 24 26 29 30 31 33 35 39 39 39 41 42 40 40 41 42 44 47 47 45 44 45 47 48 50 50 52 53 54 58 63 65 65 62 63 69 67 59 60 62 57 54 50 41 37 34 29 24 21 17 14 12 11 14 21 25
10 10 10 11 13 16 15 16 18 18 18 18 17 18 17 16 16 17 16 17 16 17 17 17 18 19 20 21 21 20 21 22 24 28 32 33 34 34 35 38 38 38 39 38 39 42 42 43 47 49 48 46 45 46 47 48 49 50 50 51 52 55 60 63 63 61 61 65 64 61 63 62 58 54 48 42 40 35 29 26 23 20 17 14 12 15 20 26
8 9 10 11 13 15 15 16 17 17 17 17 17 18 18 16 16 18 18 17 15 16 17 16 18 21 22 23 22 20 22 23 24 26 30 32 34 34 35 36 36 38 38 37 40 44 42 44 48 47 46 45 43 43 45 46 48 48 48 50 52 54 57 60 62 61 62 64 64 64 65 63 58 54 49 45 42 36 30 27 25 22 19 16 14 15 19 26
7 8 8 10 12 14 14 14 16 15 15 15 17 19 19 17 17 18 19 19 18 17 18 17 19 22 24 25 23 23 24 26 27 27 28 29 31 34 35 35 36 39 40 40 43 44 42 43 44 44 45 44 41 42 44 44 46 48 51 53 53 54 58 60 62 61 62 64 65 66 67 64 58 53 50 47 43 38 33 29 27 25 22 19 17 16 19 25
7 7 7 9 11 13 13 13 14 14 14 17 19 20 20 18 18 18 18 18 20 19 18 19 20 21 22 25 25 25 26 28 30 30 30 30 32 34 36 38 39 39 40 43 45 45 45 44 43 44 45 44 42 43 44 45 48 50 53 54 53 54 56 59 61 61 61 63 65 67 66 62 57 54 51 49 45 40 35 31 29 27 24 22 20 19 20 24